When you browse on this site, cookies collect data to enhance your experience and personalize the content and advertising you see.
Visit our Privacy Policy to learn more. By continuing to use the site, you agree to this use of cookies and data.
  • En España
  • Lista de países
  • Para 7 días
  • Temperatura del agua
  • El tiempo en el mapa
  • Informadores
  • user-avatar
    Iniciar sesión

    Tiempo cada hora Da Nang

    Hoy, 31 Mayo, Domingo

    Tiempo Temperatura Precipitaciones Viento Presión Humedad
    00:00 +26°C° 0.3 mm 2 mps 757 mmHg 92%
    01:00 +27°C° 0 mm 2 mps 757 mmHg 91%
    02:00 +27°C° 0 mm 1 mps 757 mmHg 91%
    03:00 +27°C° 0 mm 1 mps 756 mmHg 91%
    04:00 +27°C° 0 mm 1 mps 756 mmHg 91%
    05:00 +28°C° 0 mm 1 mps 756 mmHg 88%
    06:00 +29°C° 0 mm 1 mps 757 mmHg 85%
    07:00 +30°C° 0 mm 1 mps 758 mmHg 80%
    08:00 +33°C° 0 mm 1 mps 757 mmHg 69%
    09:00 +35°C° 0 mm 1 mps 757 mmHg 58%
    10:00 +39°C° 0 mm 1 mps 757 mmHg 47%
    11:00 +39°C° 0 mm 2 mps 757 mmHg 48%
    12:00 +39°C° 0 mm 2 mps 756 mmHg 48%
    13:00 +39°C° 0 mm 3 mps 755 mmHg 49%
    14:00 +37°C° 0.8 mm 2 mps 755 mmHg 59%
    15:00 +36°C° 0.8 mm 2 mps 755 mmHg 68%
    16:00 +34°C° 0.8 mm 2 mps 754 mmHg 78%
    17:00 +32°C° 1 mm 2 mps 754 mmHg 83%
    18:00 +30°C° 1 mm 2 mps 755 mmHg 87%
    19:00 +29°C° 1 mm 2 mps 755 mmHg 91%
    20:00 +29°C° 0 mm 2 mps 756 mmHg 91%
    21:00 +29°C° 0 mm 2 mps 756 mmHg 91%
    22:00 +28°C° 0 mm 2 mps 757 mmHg 92%
    23:00 +28°C° 0 mm 2 mps 756 mmHg 91%

    Mañana, 1 Junio, Lunes

    Tiempo Temperatura Precipitaciones Viento Presión Humedad
    00:00 +28°C° 0 mm 2 mps 756 mmHg 90%
    01:00 +28°C° 0 mm 2 mps 756 mmHg 89%
    02:00 +28°C° 0 mm 2 mps 756 mmHg 87%
    03:00 +28°C° 0 mm 2 mps 755 mmHg 84%
    04:00 +28°C° 0 mm 2 mps 755 mmHg 82%
    05:00 +29°C° 0 mm 1 mps 756 mmHg 80%
    06:00 +29°C° 0 mm 1 mps 756 mmHg 78%
    07:00 +30°C° 0 mm 1 mps 756 mmHg 77%
    08:00 +32°C° 0 mm 1 mps 756 mmHg 69%
    09:00 +34°C° 0 mm 1 mps 756 mmHg 61%
    10:00 +36°C° 0 mm 1 mps 756 mmHg 53%
    11:00 +37°C° 0 mm 1 mps 756 mmHg 50%
    12:00 +39°C° 0 mm 2 mps 755 mmHg 47%
    13:00 +40°C° 0 mm 2 mps 755 mmHg 44%
    14:00 +38°C° 0.7 mm 2 mps 754 mmHg 56%
    15:00 +36°C° 0.7 mm 2 mps 754 mmHg 68%
    16:00 +34°C° 0.7 mm 2 mps 753 mmHg 81%
    17:00 +31°C° 2 mm 2 mps 754 mmHg 85%
    18:00 +30°C° 2 mm 2 mps 755 mmHg 88%
    19:00 +28°C° 2 mm 2 mps 756 mmHg 92%
    20:00 +28°C° 0.1 mm 2 mps 756 mmHg 92%
    21:00 +27°C° 0.1 mm 2 mps 756 mmHg 93%
    22:00 +27°C° 0.1 mm 2 mps 757 mmHg 93%
    23:00 +27°C° 0 mm 2 mps 756 mmHg 92%

    Pasado mañana, 2 Junio, Martes

    Tiempo Temperatura Precipitaciones Viento Presión Humedad
    00:00 +27°C° 0 mm 2 mps 756 mmHg 91%
    01:00 +27°C° 0 mm 2 mps 755 mmHg 91%
    02:00 +27°C° 0 mm 2 mps 755 mmHg 90%
    03:00 +26°C° 0 mm 2 mps 755 mmHg 90%
    04:00 +26°C° 0 mm 2 mps 754 mmHg 90%
    05:00 +27°C° 0 mm 2 mps 755 mmHg 86%
    06:00 +28°C° 0 mm 2 mps 755 mmHg 83%
    07:00 +29°C° 0 mm 2 mps 755 mmHg 80%
    08:00 +32°C° 0 mm 1 mps 756 mmHg 68%
    09:00 +35°C° 0 mm 1 mps 756 mmHg 56%
    10:00 +37°C° 0 mm 1 mps 756 mmHg 45%
    11:00 +39°C° 0 mm 1 mps 755 mmHg 44%
    12:00 +39°C° 0 mm 2 mps 755 mmHg 43%
    13:00 +40°C° 0 mm 3 mps 754 mmHg 42%
    14:00 +39°C° 0 mm 3 mps 753 mmHg 48%
    15:00 +37°C° 0 mm 3 mps 753 mmHg 54%
    16:00 +36°C° 0 mm 3 mps 752 mmHg 60%
    17:00 +34°C° 0.2 mm 2 mps 753 mmHg 68%
    18:00 +31°C° 0.2 mm 2 mps 753 mmHg 77%
    19:00 +29°C° 0.2 mm 1 mps 754 mmHg 85%
    20:00 +29°C° 0.2 mm 1 mps 754 mmHg 87%
    21:00 +28°C° 0.2 mm 1 mps 755 mmHg 89%
    22:00 +28°C° 0.2 mm 1 mps 755 mmHg 90%
    23:00 +28°C° 0 mm 1 mps 755 mmHg 91%

    3 Junio, Miércoles

    Tiempo Temperatura Precipitaciones Viento Presión Humedad
    00:00 +27°C° 0 mm 2 mps 755 mmHg 91%
    01:00 +27°C° 0 mm 2 mps 754 mmHg 91%
    02:00 +27°C° 0 mm 2 mps 754 mmHg 89%
    03:00 +27°C° 0 mm 2 mps 754 mmHg 88%
    04:00 +27°C° 0 mm 2 mps 753 mmHg 87%
    05:00 +28°C° 0 mm 2 mps 754 mmHg 83%
    06:00 +29°C° 0 mm 1 mps 754 mmHg 79%
    07:00 +30°C° 0 mm 1 mps 754 mmHg 75%
    08:00 +32°C° 0 mm 1 mps 754 mmHg 65%
    09:00 +35°C° 0 mm 1 mps 754 mmHg 55%
    10:00 +37°C° 0 mm 1 mps 755 mmHg 45%
    11:00 +39°C° 0 mm 1 mps 754 mmHg 43%
    12:00 +40°C° 0 mm 2 mps 753 mmHg 42%
    13:00 +40°C° 0 mm 2 mps 753 mmHg 40%
    14:00 +39°C° 0 mm 2 mps 752 mmHg 47%
    15:00 +37°C° 0 mm 2 mps 752 mmHg 55%
    16:00 +36°C° 0 mm 2 mps 752 mmHg 62%
    17:00 +34°C° 0.4 mm 2 mps 752 mmHg 71%
    18:00 +31°C° 0.4 mm 1 mps 753 mmHg 80%
    19:00 +29°C° 0.4 mm 1 mps 753 mmHg 89%
    20:00 +29°C° 0 mm 1 mps 754 mmHg 89%
    21:00 +28°C° 0 mm 2 mps 754 mmHg 89%
    22:00 +28°C° 0 mm 2 mps 755 mmHg 89%
    23:00 +28°C° 0 mm 2 mps 754 mmHg 88%

    4 Junio, Jueves

    Tiempo Temperatura Precipitaciones Viento Presión Humedad
    00:00 +28°C° 0 mm 2 mps 754 mmHg 87%
    01:00 +27°C° 0 mm 2 mps 753 mmHg 87%
    02:00 +28°C° 0 mm 2 mps 753 mmHg 84%
    03:00 +28°C° 0 mm 2 mps 753 mmHg 81%
    04:00 +28°C° 0 mm 2 mps 752 mmHg 78%
    05:00 +29°C° 0 mm 2 mps 753 mmHg 76%
    06:00 +29°C° 0 mm 2 mps 753 mmHg 73%
    07:00 +30°C° 0 mm 2 mps 754 mmHg 71%
    08:00 +33°C° 0 mm 1 mps 754 mmHg 62%
    09:00 +35°C° 0 mm 1 mps 754 mmHg 54%
    10:00 +37°C° 0 mm 1 mps 754 mmHg 45%
    11:00 +39°C° 0 mm 1 mps 753 mmHg 44%
    12:00 +40°C° 0 mm 2 mps 753 mmHg 42%
    13:00 +42°C° 0 mm 3 mps 752 mmHg 40%
    14:00 +39°C° 0.1 mm 2 mps 752 mmHg 49%
    15:00 +37°C° 0.1 mm 2 mps 752 mmHg 58%
    16:00 +35°C° 0.1 mm 2 mps 751 mmHg 67%
    17:00 +32°C° 0.3 mm 2 mps 752 mmHg 74%
    18:00 +31°C° 0.3 mm 2 mps 752 mmHg 82%
    19:00 +29°C° 0.3 mm 2 mps 753 mmHg 89%
    20:00 +29°C° 0 mm 2 mps 753 mmHg 89%
    21:00 +29°C° 0 mm 2 mps 754 mmHg 90%
    22:00 +28°C° 0 mm 2 mps 754 mmHg 90%
    23:00 +28°C° 0 mm 2 mps 754 mmHg 89%

    5 Junio, Viernes

    Tiempo Temperatura Precipitaciones Viento Presión Humedad
    00:00 +28°C° 0 mm 2 mps 753 mmHg 88%
    01:00 +28°C° 0 mm 2 mps 752 mmHg 87%
    02:00 +28°C° 0 mm 2 mps 752 mmHg 85%
    03:00 +28°C° 0 mm 2 mps 752 mmHg 83%
    04:00 +28°C° 0 mm 2 mps 752 mmHg 81%
    05:00 +29°C° 0 mm 2 mps 753 mmHg 78%
    06:00 +30°C° 0 mm 2 mps 753 mmHg 75%
    07:00 +31°C° 0 mm 2 mps 753 mmHg 72%
    08:00 +34°C° 0 mm 2 mps 753 mmHg 63%
    09:00 +36°C° 0 mm 2 mps 754 mmHg 54%
    10:00 +39°C° 0 mm 2 mps 754 mmHg 46%
    11:00 +40°C° 0 mm 2 mps 753 mmHg 43%
    12:00 +40°C° 0 mm 3 mps 752 mmHg 41%
    13:00 +42°C° 0 mm 3 mps 752 mmHg 38%
    14:00 +40°C° 0 mm 3 mps 751 mmHg 45%
    15:00 +38°C° 0 mm 3 mps 751 mmHg 52%
    16:00 +36°C° 0 mm 3 mps 751 mmHg 58%
    17:00 +35°C° 0.1 mm 2 mps 751 mmHg 67%
    18:00 +32°C° 0.1 mm 2 mps 752 mmHg 77%
    19:00 +30°C° 0.1 mm 1 mps 752 mmHg 86%
    20:00 +29°C° 0 mm 1 mps 753 mmHg 87%
    21:00 +29°C° 0 mm 2 mps 753 mmHg 87%
    22:00 +29°C° 0 mm 2 mps 753 mmHg 88%
    23:00 +29°C° 0 mm 2 mps 753 mmHg 86%
    Mostrar más